This demonstration page uses our WeatherBlox Daily Observations layout. Learn more.

Left ArrowRight Arrow

34.74481, -87.66753

Hourly Observations for July 16, 2020

Temp ( °F °C ) Dew Point ( °F °C ) Humidity (%) Winds ( mph kmh ) Pressure ( in mb ) Visibility ( mi km ) Precip ( " mm )
12:53 am 00:53 Clear 80 26.7 73 22.8 79 79 Calm 30.01 1016 10 16 0.00 0.00
1:53 am 01:53 Clear 77 25 72 22.2 85 85 SSE 6 9 30.00 1016 10 16 0.00 0.00
2:53 am 02:53 Clear 77 25 71 21.7 82 82 SSE 5 7 30.00 1016 10 16 0.00 0.00
3:53 am 03:53 Clear 75 23.9 71 21.7 88 88 Calm 30.01 1016 10 16 0.00 0.00
4:53 am 04:53 Clear 75 23.9 70 21.1 84 84 Calm 30.03 1017 10 16 0.00 0.00
5:53 am 05:53 Sunny 74 23.3 70 21.1 88 88 S 5 7 30.05 1018 10 16 0.00 0.00
6:53 am 06:53 Sunny 75 23.9 71 21.7 88 88 SSE 5 7 30.06 1018 10 16 0.00 0.00
7:53 am 07:53 Sunny 77 25 71 21.7 82 82 S 5 7 30.09 1019 10 16 0.00 0.00
8:53 am 08:53 Sunny 81 27.2 72 22.2 74 74 SSE 6 9 30.09 1019 10 16 0.00 0.00
9:53 am 09:53 Sunny 85 29.4 73 22.8 68 68 VRB 6 9 30.09 1019 10 16 0.00 0.00
10:53 am 10:53 Sunny 87 30.6 74 23.3 65 65 SW 5 7 30.11 1020 10 16 0.00 0.00
11:53 am 11:53 Sunny 90 32.2 74 23.3 59 59 SE 5 7 30.11 1020 10 16 0.00 0.00
12:53 pm 12:53 Mostly Sunny 92 33.3 73 22.8 54 54 VRB 3 6 30.09 1019 10 16 0.00 0.00
1:53 pm 13:53 Mostly Sunny 92 33.3 73 22.8 54 54 VRB 6 9 30.07 1018 10 16 0.00 0.00
2:53 pm 14:53 Mostly Sunny 93 33.9 74 23.3 54 54 SSW 7 11 30.05 1018 10 16 0.00 0.00
3:53 pm 15:53 Partly Cloudy 93 33.9 74 23.3 54 54 ESE 5 7 30.05 1018 10 16 0.00 0.00
4:53 pm 16:53 Partly Cloudy 93 33.9 73 22.8 52 52 S 3 6 30.06 1018 10 16 0.00 0.00
5:53 pm 17:53 Mostly Cloudy 93 33.9 74 23.3 54 54 SSE 5 7 30.07 1018 10 16 0.00 0.00
6:53 pm 18:53 Mostly Cloudy 90 32.2 73 22.8 58 58 S 5 7 30.08 1019 10 16 0.00 0.00
7:53 pm 19:53 Sunny 86 30 75 23.9 70 70 SSE 7 11 30.05 1018 10 16 0.00 0.00
8:53 pm 20:53 Clear 84 28.9 74 23.3 72 72 SSE 8 13 30.05 1018 10 16 0.00 0.00
9:53 pm 21:53 Clear 82 27.8 73 22.8 74 74 Calm 30.06 1018 10 16 0.00 0.00
10:53 pm 22:53 Clear 79 26.1 74 23.3 85 85 Calm 30.09 1019 10 16 0.00 0.00
11:53 pm 23:53 Clear 77 25 73 22.8 88 88 Calm 30.10 1019 10 16 0.00 0.00

Powered by AerisWeather